Wind_Speed
31 34 40 38 35 34 30 33 37 41 38 29 40 48 46 38 38 37 36 37 38 33 35 36 36 35 31 32 34 32 27 23 22 20 20 23 26 31 34 37 37 37 36 36
37 46 42 36 36 31 34 37 41 46 46 40 35 43 42 37 36 38 38 38 38 35 34 34 34 31 28 31 28 25 22 19 15 14 16 19 24 29 33 36 37 38 37 36
49 51 32 28 30 30 41 40 45 47 45 41 37 43 46 41 36 38 42 44 37 24 27 32 30 26 28 27 21 22 21 16 15 13 14 19 25 30 33 35 37 38 37 36
46 47 48 45 48 43 54 46 43 41 36 26 20 13 28 30 31 34 41 32 11 28 31 31 29 28 24 21 20 26 26 26 25 21 21 25 28 36 34 35 39 38 36 37
48 37 36 33 42 29 46 37 36 36 34 34 32 22 32 25 27 33 19 11 30 29 30 32 32 31 21 22 21 27 30 31 34 35 36 32 31 40 37 36 38 37 38 39
54 49 42 38 40 38 37 35 31 29 27 14 28 28 35 31 28 22 17 25 32 31 28 37 40 33 25 19 20 26 30 35 37 38 41 40 38 42 44 35 36 37 39 40
38 44 39 44 43 41 37 22 5 5 6 12 17 29 41 25 17 22 30 35 31 30 31 27 30 29 25 25 24 25 30 33 37 39 41 42 42 47 45 37 36 39 41 41
16 18 26 33 33 27 24 30 12 7 5 20 25 17 24 34 40 38 32 26 24 23 22 22 23 26 28 26 23 26 30 30 37 42 43 45 44 45 46 40 36 40 41 41
28 28 28 28 26 23 26 26 31 26 28 13 29 41 38 32 30 27 26 23 23 21 19 17 23 24 24 26 27 28 25 32 39 46 47 47 45 48 48 41 37 39 40 41
35 28 39 33 32 34 32 27 15 14 2 8 32 31 37 38 39 35 29 28 19 23 24 25 24 23 25 26 31 33 33 41 45 46 49 50 48 50 49 43 40 40 41 42
39 37 39 39 40 42 37 37 28 22 23 7 14 20 16 5 7 9 12 15 20 22 28 27 32 31 27 33 37 43 51 49 47 45 47 48 52 52 50 46 41 40 42 42
39 27 24 42 46 47 38 39 40 31 22 16 24 54 29 36 26 27 23 28 25 36 36 38 38 33 38 45 47 42 41 44 40 43 47 52 56 51 48 45 41 40 41 43
18 13 16 29 39 41 39 42 43 43 41 33 28 49 56 55 47 39 27 30 38 39 42 50 49 53 51 49 46 43 42 45 44 43 48 53 52 49 45 43 41 41 42 44
57 43 35 27 33 13 19 47 44 44 33 52 48 62 76 68 63 62 62 59 59 56 44 44 47 53 55 42 39 39 40 42 42 42 46 48 46 46 43 42 42 42 44 44
46 38 50 61 66 68 58 58 56 36 45 46 54 51 62 70 55 63 61 56 51 54 55 51 42 38 35 39 41 40 39 41 43 44 45 45 44 43 41 42 43 43 45 43
44 43 44 54 55 62 66 63 59 68 69 64 63 65 79 75 72 68 61 50 58 55 45 31 33 34 36 38 34 30 33 36 39 43 43 42 40 39 39 41 42 43 44 42
47 46 34 33 48 47 37 61 64 62 61 64 64 75 57 63 52 47 41 51 56 51 34 34 33 34 33 30 31 33 33 34 34 37 37 37 36 35 38 41 41 42 42 41
56 47 46 41 34 20 51 56 57 67 67 62 65 58 56 53 51 52 55 50 40 38 37 36 31 25 27 31 31 27 28 32 31 28 27 28 29 33 37 40 41 43 42 40
64 63 45 35 37 44 32 47 54 61 72 67 63 58 55 55 53 55 50 44 42 42 36 32 26 28 27 22 25 25 29 27 31 35 38 41 39 36 39 42 44 43 40 38
44 62 64 50 20 19 45 54 58 65 45 50 59 60 52 58 50 58 49 39 42 44 35 28 29 30 24 25 25 26 30 28 29 32 37 43 46 46 43 43 43 42 39 27
31 43 54 54 40 42 56 51 35 31 45 44 47 53 55 56 57 53 45 41 37 39 31 27 31 34 32 31 34 30 33 34 30 29 28 34 40 47 46 43 44 41 34 32
29 37 40 41 37 24 24 31 36 43 45 40 38 30 35 40 42 36 34 33 36 34 28 29 33 34 36 36 34 34 34 33 31 31 34 39 43 44 47 47 43 39 35 27
18 13 19 13 16 12 8 9 17 31 30 25 33 38 40 42 43 39 38 39 40 43 39 37 43 42 36 35 35 38 37 32 31 40 45 43 44 45 47 47 43 38 32 25
44 53 51 44 43 47 52 48 54 59 62 72 63 51 46 46 35 36 42 40 41 35 39 44 41 43 44 37 37 36 38 36 45 50 44 45 46 46 48 47 42 34 28 23
46 52 52 61 60 64 67 53 62 62 57 60 66 66 74 71 75 70 62 51 48 53 59 56 49 44 44 45 40 43 50 54 53 53 48 47 47 48 48 44 36 32 27 27
41 49 49 58 58 53 57 63 58 58 61 61 64 65 58 59 64 65 67 67 70 68 66 62 65 63 58 56 57 58 62 50 49 51 50 51 50 51 47 41 39 32 30 26
Wind_Direction
263 256 254 264 270 282 281 274 272 276 284 277 276 279 278 281 276 281 289 294 295 296 296 285 285 283 278 271 269 271 264 265 266 279 289 292 290 285 282 278 276 275 275 276
260 255 265 270 270 255 253 261 264 275 284 283 284 272 276 271 274 285 290 294 300 297 286 282 281 285 277 272 268 256 250 248 260 280 294 303 300 295 287 281 277 274 273 274
260 262 268 262 263 263 264 261 270 275 284 280 277 272 269 275 278 284 291 300 301 289 282 276 282 286 278 268 258 243 235 241 259 279 307 322 321 309 295 285 279 275 274 275
263 266 261 256 260 262 270 272 275 275 276 265 264 280 264 269 278 286 296 297 276 302 279 276 287 289 283 262 247 244 243 255 264 283 306 314 325 318 304 288 279 277 274 275
258 269 267 258 264 260 265 268 270 270 264 266 256 273 273 269 271 290 282 217 304 285 279 276 283 289 283 264 255 251 250 259 267 275 283 298 312 316 306 289 279 272 271 275
257 253 255 261 265 266 265 266 266 264 267 257 247 239 277 264 271 271 243 271 301 275 266 268 276 285 283 270 269 264 262 266 268 274 282 291 304 309 307 294 282 273 272 276
262 263 268 260 260 259 258 244 264 257 187 252 263 243 247 270 254 259 275 293 281 280 279 270 268 273 271 273 273 271 273 276 276 278 284 288 296 306 304 295 283 277 278 278
252 264 256 260 256 256 255 238 212 237 219 275 266 254 263 273 270 270 265 285 267 272 272 268 265 265 264 264 261 280 277 282 288 280 284 281 293 303 303 297 284 277 277 276
252 256 262 258 257 252 247 219 240 241 271 285 261 268 279 280 271 257 254 266 265 261 257 250 271 279 248 267 266 277 268 278 288 282 277 278 290 301 302 296 283 275 273 274
259 263 261 265 262 253 233 249 215 205 256 241 275 283 276 282 280 258 251 262 264 252 240 260 259 277 251 266 279 274 270 289 294 283 278 275 288 296 300 296 283 275 271 271
264 256 257 256 251 254 240 233 230 233 229 230 271 275 334 227 195 213 219 233 254 259 273 258 268 277 257 279 282 277 281 285 287 281 280 276 286 292 294 291 282 274 270 269
263 252 249 252 259 262 256 247 242 232 239 233 247 264 263 264 274 262 271 255 254 282 278 280 284 268 272 284 290 286 287 281 281 276 277 279 284 286 288 284 278 268 268 267
277 261 274 274 263 254 257 251 247 246 249 248 245 258 262 271 275 271 272 261 267 277 281 287 284 284 290 296 294 290 286 283 283 280 277 279 281 284 284 282 275 266 265 265
253 255 244 239 242 262 278 253 255 252 243 249 249 256 270 265 265 265 268 270 273 281 283 281 282 286 291 287 288 284 278 277 277 273 273 273 277 280 279 275 270 265 264 265
261 236 246 250 254 257 255 255 253 267 259 248 261 261 264 272 274 278 282 282 278 278 285 286 283 285 283 282 282 283 279 276 274 270 269 271 273 275 274 270 269 265 261 264
252 247 251 248 256 256 252 259 260 261 255 255 258 265 264 269 275 278 282 283 282 286 294 285 292 287 284 282 286 283 285 286 279 272 271 273 274 275 273 271 269 265 260 262
245 249 237 240 252 260 250 257 261 263 263 257 249 261 284 277 276 273 283 284 286 288 274 283 289 279 279 278 283 288 287 287 288 282 278 277 278 276 273 272 269 264 258 259
257 251 243 253 253 231 249 269 270 270 273 274 267 268 270 271 279 278 279 284 286 298 282 289 273 279 283 287 296 301 316 308 292 285 282 281 278 276 274 271 266 258 254 256
251 251 247 247 246 256 257 259 259 259 265 276 272 269 268 278 282 278 279 283 286 297 294 271 256 274 276 275 283 288 295 299 294 292 292 287 278 276 274 269 263 255 252 253
256 251 243 243 246 253 256 263 268 265 256 261 268 273 288 293 266 279 289 283 289 295 294 257 249 265 279 283 290 292 294 282 289 291 289 288 287 284 276 267 259 252 248 245
259 242 234 236 247 254 255 255 260 252 263 271 276 281 284 280 280 288 287 285 288 285 281 259 258 266 270 283 281 281 286 283 289 295 304 298 295 291 280 268 257 249 241 234
271 242 239 240 239 246 263 254 255 259 266 267 262 265 264 260 263 268 265 269 273 276 269 262 262 260 269 285 281 281 284 278 284 294 299 301 300 298 290 267 251 242 234 230
277 274 313 325 300 281 234 262 252 286 306 269 259 256 260 265 261 266 267 270 271 273 268 260 264 258 268 279 281 284 283 279 293 302 298 293 291 294 295 265 244 234 229 220
276 274 292 296 288 285 284 280 301 299 298 300 302 306 296 292 275 265 264 266 267 274 276 268 257 257 265 271 281 285 282 285 302 300 290 292 293 292 282 258 239 227 216 219
285 292 293 292 293 295 288 296 303 301 296 292 292 293 294 292 294 294 290 279 281 284 289 286 270 263 261 261 268 278 285 289 291 291 284 284 287 285 278 248 229 214 211 219
295 298 294 294 302 296 296 297 298 293 293 291 292 293 289 284 283 284 285 286 286 285 283 276 277 278 274 270 266 277 290 283 282 282 279 280 284 277 262 234 214 209 210 218
Height
3120 3118 3114 3117 3118 3117 3116 3114 3111 3108 3113 3108 3102 3096 3097 3100 3098 3097 3098 3097 3095 3093 3093 3088 3085 3083 3083 3082 3083 3085 3087 3088 3088 3089 3089 3090 3090 3089 3089 3088 3087 3088 3088 3088
3112 3100 3108 3113 3112 3111 3110 3105 3102 3099 3102 3098 3093 3085 3086 3088 3089 3090 3089 3088 3088 3084 3080 3077 3075 3076 3074 3074 3075 3076 3079 3081 3082 3083 3083 3083 3083 3081 3080 3078 3078 3078 3079 3079
3098 3094 3104 3102 3100 3101 3097 3096 3094 3093 3094 3087 3083 3073 3075 3079 3079 3080 3080 3079 3078 3074 3071 3067 3067 3068 3066 3066 3068 3070 3072 3074 3075 3076 3075 3074 3074 3073 3072 3071 3070 3069 3070 3069
3087 3089 3091 3094 3091 3096 3082 3090 3088 3085 3087 3079 3077 3060 3062 3067 3068 3069 3070 3070 3069 3067 3063 3060 3059 3059 3060 3060 3062 3063 3065 3067 3067 3067 3067 3065 3065 3065 3065 3063 3060 3060 3060 3059
3076 3083 3082 3080 3078 3089 3077 3081 3080 3078 3077 3074 3072 3069 3045 3057 3057 3059 3059 3061 3063 3058 3056 3053 3052 3053 3053 3054 3056 3057 3058 3059 3060 3060 3059 3058 3057 3057 3058 3054 3051 3052 3051 3050
3071 3076 3075 3075 3075 3076 3074 3074 3074 3072 3071 3060 3060 3064 3036 3045 3048 3050 3052 3053 3051 3048 3049 3046 3045 3046 3047 3049 3049 3051 3052 3053 3053 3052 3051 3049 3049 3048 3047 3045 3043 3042 3042 3041
3063 3063 3066 3068 3069 3068 3068 3066 3068 3068 3066 3045 3048 3043 3028 3035 3038 3041 3044 3044 3039 3039 3039 3039 3039 3039 3040 3041 3042 3044 3044 3044 3044 3043 3042 3041 3040 3039 3037 3036 3035 3033 3032 3031
3058 3054 3057 3056 3057 3060 3057 3058 3058 3062 3055 3033 3041 3020 3022 3031 3034 3032 3033 3031 3031 3032 3032 3031 3031 3032 3033 3033 3035 3036 3036 3036 3036 3034 3033 3032 3031 3031 3029 3026 3025 3024 3023 3022
3054 3050 3048 3049 3051 3053 3048 3048 3049 3047 3041 3040 3017 3014 3016 3019 3021 3021 3022 3023 3023 3024 3025 3025 3025 3026 3027 3027 3028 3029 3028 3028 3027 3026 3024 3022 3020 3019 3018 3016 3015 3014 3013 3011
3043 3042 3042 3042 3044 3043 3040 3042 3043 3041 3042 3038 3000 3010 3005 3011 3012 3013 3015 3016 3018 3017 3018 3020 3019 3020 3020 3021 3021 3020 3018 3017 3016 3014 3013 3011 3010 3009 3007 3005 3004 3003 3003 3001
3038 3035 3032 3032 3031 3030 3032 3030 3030 3029 3025 3020 3016 2993 2994 2997 3001 3005 3008 3011 3012 3012 3012 3011 3011 3012 3012 3013 3013 3011 3007 3006 3003 3000 3000 2999 2998 2999 2996 2994 2993 2992 2992 2991
3032 3025 3023 3021 3021 3021 3017 3018 3018 3018 3009 3009 3010 2976 2992 2997 2997 3000 3003 3003 3004 3004 3004 3003 3002 3002 3002 3001 2999 2996 2995 2992 2990 2988 2987 2986 2985 2985 2985 2983 2982 2980 2980 2980
3025 3019 3014 3014 3015 3009 3006 3008 3008 3007 3007 3001 2994 2977 2989 2988 2991 2992 2990 2992 2993 2992 2992 2992 2990 2988 2987 2985 2983 2981 2980 2978 2977 2976 2974 2972 2971 2972 2972 2971 2969 2968 2968 2968
3008 3010 3007 3003 2997 2999 3000 3000 3002 2999 2998 2982 2984 2973 2964 2975 2982 2981 2981 2984 2984 2983 2980 2979 2976 2974 2972 2970 2967 2966 2965 2963 2962 2960 2959 2957 2957 2959 2959 2958 2957 2956 2956 2956
2992 2983 2988 2986 2987 2983 2985 2988 2989 2990 2983 2979 2969 2971 2966 2950 2970 2964 2966 2966 2968 2967 2969 2966 2963 2961 2958 2955 2953 2950 2949 2948 2947 2945 2944 2943 2943 2945 2947 2945 2945 2944 2945 2946
2973 2970 2972 2967 2969 2968 2969 2973 2974 2965 2967 2968 2963 2956 2943 2950 2951 2949 2950 2952 2953 2952 2953 2952 2948 2945 2942 2938 2937 2936 2935 2934 2933 2932 2930 2930 2931 2933 2933 2933 2932 2932 2934 2935
2959 2958 2956 2949 2953 2956 2955 2948 2942 2945 2947 2942 2945 2928 2935 2938 2934 2934 2938 2938 2938 2937 2939 2939 2936 2932 2931 2929 2927 2925 2923 2922 2921 2921 2920 2919 2920 2920 2920 2920 2920 2922 2923 2923
2945 2945 2944 2934 2940 2927 2917 2930 2932 2922 2922 2924 2918 2919 2924 2920 2922 2927 2927 2925 2923 2925 2927 2925 2923 2921 2921 2920 2919 2916 2914 2913 2912 2911 2910 2909 2909 2909 2909 2909 2909 2909 2910 2912
2932 2931 2927 2922 2914 2909 2914 2915 2915 2906 2891 2905 2908 2905 2905 2911 2912 2907 2914 2915 2912 2913 2913 2909 2910 2909 2909 2907 2906 2906 2905 2904 2904 2902 2902 2899 2898 2897 2898 2896 2894 2895 2898 2900
2915 2914 2915 2911 2896 2889 2894 2901 2903 2896 2887 2898 2895 2890 2897 2897 2893 2893 2903 2903 2898 2898 2900 2898 2898 2898 2898 2897 2895 2895 2894 2894 2894 2893 2891 2890 2887 2886 2885 2883 2882 2882 2885 2890
2902 2902 2890 2883 2880 2879 2883 2890 2895 2889 2884 2889 2890 2885 2888 2887 2885 2885 2887 2887 2886 2885 2887 2887 2887 2887 2885 2885 2884 2884 2884 2883 2882 2881 2879 2879 2877 2874 2873 2871 2870 2871 2874 2877
2887 2881 2878 2877 2871 2868 2871 2879 2882 2877 2873 2872 2872 2869 2867 2868 2865 2867 2868 2870 2870 2872 2875 2875 2873 2874 2873 2872 2872 2872 2873 2873 2870 2869 2868 2866 2864 2861 2860 2859 2859 2860 2863 2869
2885 2880 2875 2866 2862 2853 2857 2859 2862 2861 2855 2854 2852 2853 2853 2854 2855 2853 2853 2851 2852 2858 2861 2861 2860 2859 2857 2859 2859 2860 2861 2861 2858 2857 2855 2853 2852 2849 2847 2846 2847 2851 2856 2859
2872 2871 2865 2862 2855 2851 2850 2847 2855 2844 2840 2839 2840 2842 2840 2838 2838 2838 2841 2837 2835 2840 2844 2844 2841 2841 2841 2843 2844 2843 2845 2845 2844 2842 2842 2840 2838 2837 2835 2833 2836 2842 2846 2853
2869 2860 2854 2843 2844 2842 2841 2844 2837 2827 2827 2829 2829 2828 2828 2827 2824 2822 2824 2822 2820 2822 2825 2825 2825 2824 2825 2826 2826 2826 2828 2831 2830 2828 2828 2826 2825 2823 2821 2823 2828 2832 2838 2845
2863 2855 2847 2833 2838 2837 2826 2819 2821 2820 2819 2819 2814 2809 2813 2812 2807 2806 2801 2798 2797 2802 2805 2806 2808 2808 2808 2806 2806 2806 2809 2811 2812 2811 2813 2813 2812 2810 2808 2811 2816 2822 2829 2836